Regional Weather Roundup
Issued by NWS

Home | Current Version | Previous Version | Text Only | Print | Product List | Glossary On
Versions: 1 2 3 4 5 6 7 8 9 10 11 12 13 14 15 16 17 18 19 20 21 22 23 24 25 26 27 28 29 30 31 32 33 34 35 36 37 38 39 40 41 42 43 44 45 46 47 48 49 50
000
ASUS43 KLSX 191007
RWRMO

WEATHER SUMMARY FOR MISSOURI
NATIONAL WEATHER SERVICE SPRINGFIELD MO
400 AM CST FRI DEC 19 2014

NOTE: "FAIR" INDICATES FEW OR NO CLOUDS BELOW 12,000 FEET WITH NO
       SIGNIFICANT WEATHER AND/OR OBSTRUCTIONS TO VISIBILITY.
       CURRENT SKY AND/OR WEATHER CONDITIONS ARE NOT AVAILABLE FOR
       CHILLICOTHE AND FARMINGTON.

MOZ001>031-035>038-043-044-053-054-191100-
...NORTHERN AND WESTERN MISSOURI...

CITY           SKY/WX    TMP DP  RH WIND       PRES   REMARKS
KANSAS CTY INT FOG       31  30  96 CALM      30.24F VSB 1
KANSAS C DTWN  CLOUDY    33  30  88 CALM      30.25F
LEE`S SUMMIT   CLOUDY    32  30  92 CALM      30.24F
ST JOSEPH      CLOUDY    30  27  88 CALM      30.27F
CHILLICOTHE      N/A     31  27  85 CALM      30.29R
KIRKSVILLE     CLOUDY    29  26  89 CALM      30.27S

$$
MOZ066>068-077>081-088>096-101>105-191100-
...SOUTHWEST MISSOURI...

CITY           SKY/WX    TMP DP  RH WIND       PRES   REMARKS
SPRINGFIELD    CLOUDY    38  36  92 E3        30.19F FOG
JOPLIN         FOG       36  35  96 N6        30.21F VSB 1/4

$$
MOZ032>034-039>042-045>050-055>058-069>072-191100-
...CENTRAL MISSOURI...

CITY           SKY/WX    TMP DP  RH WIND       PRES   REMARKS
COLUMBIA       CLOUDY    32  30  92 E7        30.25F FOG     WCI  26
JEFFERSON CITY CLOUDY    33  31  92 E5        30.27F FOG     WCI  29
ROLLA          FOG       32  31  96 E5        30.22F VSB 1/4 WCI  27
SEDALIA        FOG       33  32  96 NE5       30.25S VSB 3/4 WCI  29
WHITEMAN AFB   FOG       33  32  97 NE3       30.24F VSB 1/2
WARRENSBURG    FOG       32  32 100 CALM      30.25S VSB 1/2
OSAGE BEACH    CLOUDY    34  32  93 NE3       30.24S

$$
MOZ051-052-059>065-191100-
...EAST CENTRAL MISSOURI...

CITY           SKY/WX    TMP DP  RH WIND       PRES   REMARKS
ST LOUIS INTL  CLOUDY    33  26  75 CALM      30.29S
SPIRIT OF STL  CLOUDY    33  28  81 CALM      30.29S
ST CHARLES     CLOUDY    32  28  85 CALM      30.30S

$$
MOZ072>076-082>087-097>100-106>115-191100-
...SOUTH CENTRAL AND SOUTHEAST MISSOURI...

CITY           SKY/WX    TMP DP  RH WIND       PRES   REMARKS
CAPE GIRARDEAU CLOUDY    34  31  88 NE10      30.26F WCI  26
FARMINGTON     CLOUDY    34  30  86 N5        30.26S WCI  30
POPLAR BLUFF   CLOUDY    36  32  85 NE7       30.23F
WEST PLAINS    CLOUDY    35  34  96 NE6       30.19F FOG

$$



USA.gov is the U.S. government's official web portal to all federal, state and local government web resources and services.